TimeCDT,TemperatureF,Dew PointF,Humidity,Sea Level PressureIn,VisibilityMPH,Wind Direction,Wind SpeedMPH,Gust SpeedMPH,PrecipitationIn,Events,Conditions,WindDirDegrees,DateUTC
12:53 AM,61.0,44.1,54,29.83,10.0,South,12.7,24.2,N/A,,Clear,190,2013-09-30 05:53:00
1:53 AM,60.1,44.1,55,29.83,10.0,South,6.9,20.7,N/A,,Clear,190,2013-09-30 06:53:00
2:53 AM,60.1,44.1,55,29.82,10.0,South,6.9,-,N/A,,Clear,190,2013-09-30 07:53:00
3:53 AM,59.0,44.1,58,29.80,10.0,South,8.1,18.4,N/A,,Clear,180,2013-09-30 08:53:00
4:53 AM,60.1,44.1,55,29.78,10.0,South,9.2,-,N/A,,Clear,180,2013-09-30 09:53:00
5:53 AM,60.1,44.1,55,29.76,10.0,South,11.5,17.3,N/A,,Clear,180,2013-09-30 10:53:00
6:53 AM,57.9,45.0,62,29.76,10.0,SSE,10.4,17.3,N/A,,Clear,160,2013-09-30 11:53:00
7:53 AM,55.9,46.0,69,29.75,10.0,SSE,9.2,-,N/A,,Clear,150,2013-09-30 12:53:00
8:53 AM,59.0,46.9,64,29.73,10.0,South,12.7,17.3,N/A,,Clear,180,2013-09-30 13:53:00
9:53 AM,62.1,46.9,58,29.72,10.0,SSW,8.1,19.6,N/A,,Clear,200,2013-09-30 14:53:00
10:53 AM,63.0,48.0,58,29.71,10.0,South,10.4,20.7,N/A,,Clear,180,2013-09-30 15:53:00
11:53 AM,64.9,48.9,56,29.70,10.0,SSW,11.5,25.3,N/A,,Clear,200,2013-09-30 16:53:00
12:53 PM,69.1,50.0,51,29.69,10.0,SSW,12.7,19.6,N/A,,Clear,200,2013-09-30 17:53:00
1:53 PM,71.1,48.9,45,29.67,10.0,SSW,16.1,26.5,N/A,,Clear,200,2013-09-30 18:53:00
2:53 PM,72.0,51.1,48,29.65,10.0,South,11.5,26.5,N/A,,Clear,180,2013-09-30 19:53:00
3:53 PM,71.1,50.0,47,29.66,10.0,Variable,4.6,23.0,N/A,,Clear,0,2013-09-30 20:53:00
4:53 PM,71.1,51.1,49,29.65,10.0,SSW,11.5,20.7,N/A,,Clear,200,2013-09-30 21:53:00
5:53 PM,70.0,51.1,51,29.67,10.0,South,6.9,-,N/A,,Clear,190,2013-09-30 22:53:00
6:53 PM,64.0,50.0,60,29.68,10.0,South,4.6,-,N/A,,Clear,170,2013-09-30 23:53:00
7:53 PM,62.1,48.9,62,29.69,10.0,South,5.8,-,N/A,,Clear,170,2013-10-01 00:53:00
8:53 PM,64.0,48.0,56,29.69,10.0,South,6.9,-,N/A,,Clear,170,2013-10-01 01:53:00
9:53 PM,63.0,48.0,58,29.69,10.0,South,5.8,-,N/A,,Clear,170,2013-10-01 02:53:00
10:53 PM,61.0,48.0,62,29.68,10.0,Variable,4.6,-,N/A,,Clear,0,2013-10-01 03:53:00
11:53 PM,63.0,48.0,58,29.67,10.0,Variable,5.8,-,N/A,,Clear,0,2013-10-01 04:53:00